"2016-06-25 00:00:00",1752409,8.46,225.4,3.31,0.326,25.08,110.1146,25.19,26.1,21.25,0,111.2,13.03,26.03,187.4
"2016-06-25 00:00:30",1752410,7.949,218.7,4.688,0.452,25.14,110.1146,25.19,26.11,21.22,0,111.2,13.03,26.03,180.7
"2016-06-25 00:01:00",1752411,7.974,212.2,1.352,0.22,25.11,110.1197,25.2,26.12,21.18,0,111.2,13.03,26.04,174.2
"2016-06-25 00:01:30",1752412,7.953,211,1.615,0.247,25.04,110.1242,25.21,26.14,21.24,0,111.2,13.03,26.05,173.0
"2016-06-25 00:02:00",1752413,7.802,205.6,1.966,0.259,25.07,110.1377,25.25,26.15,21.23,0,111.2,13.03,26.09,167.6
"2016-06-25 00:02:30",1752414,7.324,203.7,2.206,0.23,25.11,110.1483,25.28,26.15,21.11,0,111.2,13.03,26.12,165.7
"2016-06-25 00:03:00",1752415,7.899,205.9,6.043,0.636,25.16,110.1483,25.28,26.16,21.05,0,111.2,13.03,26.12,167.9
"2016-06-25 00:03:30",1752416,8.56,218.3,4.477,0.501,25.2,110.1483,25.28,26.18,20.84,0,111.2,13.03,26.12,180.3
"2016-06-25 00:04:00",1752417,6.918,214.3,4.962,0.465,25,110.1483,25.28,26.18,20.86,0,111.2,13.03,26.12,176.3
"2016-06-25 00:04:30",1752418,7.378,220,4.147,0.486,25.09,110.1497,25.28,26.21,20.82,0,111.2,13.03,26.12,182.0
"2016-06-25 00:05:00",1752419,7.515,213.2,6.493,0.385,24.96,110.1573,25.3,26.21,21.03,0,111.2,13.03,26.14,175.2
"2016-06-25 00:05:30",1752420,7.192,215.7,2.849,0.334,24.99,110.1686,25.33,26.24,21.03,0,111.2,13.03,26.17,177.7
"2016-06-25 00:06:00",1752421,7.145,209.7,4.666,0.602,24.98,110.1762,25.35,26.24,20.98,0,111.2,13.03,26.19,171.7
"2016-06-25 00:06:30",1752422,6.371,212.4,4.024,0.313,24.9,110.1807,25.36,26.26,21.02,0,111.2,13.03,26.20,174.4
"2016-06-25 00:07:00",1752423,7.23,223.3,3.518,0.506,25.19,110.1821,25.36,26.26,20.81,0,111.2,13.03,26.20,185.3
"2016-06-25 00:07:30",1752424,6.416,212.6,3.587,0.366,24.95,110.1821,25.36,26.28,20.8,0,111.2,13.03,26.20,174.6
"2016-06-25 00:08:00",1752425,5.14,211.1,5.891,0.396,24.96,110.1821,25.36,26.29,20.84,0,111.2,13.03,26.20,173.1
"2016-06-25 00:08:30",1752426,5.451,211.7,6.703,0.928,24.76,110.1821,25.36,26.29,20.89,0,111.2,13.03,26.20,173.7
"2016-06-25 00:09:00",1752427,6.441,220.3,3.107,0.397,25.01,110.1823,25.36,26.31,20.87,0,111.2,13.03,26.20,182.3
"2016-06-25 00:09:30",1752428,6.784,224.6,2.815,0.319,25.22,110.1866,25.37,26.31,20.58,0,111.2,13.03,26.21,186.6
"2016-06-25 00:10:00",1752429,6.614,221.8,6.347,0.281,25.07,110.193,25.39,26.31,20.65,0,111.2,13.03,26.23,183.8
"2016-06-25 00:10:30",1752430,6.516,218.2,5.685,0.28,25.09,110.209,25.43,26.34,20.61,0,111.2,13.03,26.27,180.2
"2016-06-25 00:11:00",1752431,6.129,218.8,4.841,0.488,24.93,110.2155,25.45,26.34,20.75,0,111.2,13.03,26.29,180.8
"2016-06-25 00:11:30",1752432,6.177,209.5,3.258,0.675,24.65,110.2158,25.45,26.36,20.9,0,111.2,13.03,26.29,171.5
"2016-06-25 00:12:00",1752433,7.2,213.3,2.957,0.285,24.54,110.2158,25.45,26.36,21.09,0,111.2,13.03,26.29,175.3
"2016-06-25 00:12:30",1752434,7.269,214.1,2.237,0.165,24.84,110.2177,25.45,26.38,20.67,0,111.2,13.03,26.29,176.1
"2016-06-25 00:13:00",1752435,7.721,215.4,3.626,0.493,24.81,110.225,25.47,26.39,20.54,0,111.2,13.03,26.31,177.4
"2016-06-25 00:13:30",1752436,8.19,210.6,2.294,0.253,24.73,110.2417,25.52,26.41,20.54,0,111.2,13.03,26.36,172.6
"2016-06-25 00:14:00",1752437,7.784,209.4,2.795,0.459,24.63,110.2483,25.53,26.42,20.53,0,111.2,13.03,26.37,171.4
"2016-06-25 00:14:30",1752438,7.14,212.4,1.777,0.242,24.59,110.2516,25.54,26.44,20.5,0,111.2,13.03,26.38,174.4
"2016-06-25 00:15:00",1752439,6.409,210.3,2.577,0.328,24.55,110.2723,25.59,26.47,20.42,0,111.2,13.03,26.44,172.3
"2016-06-25 00:15:30",1752440,5.567,213,4.224,0.46,24.46,110.2742,25.6,26.49,20.29,0,111.2,13.03,26.44,175.0
"2016-06-25 00:16:00",1752441,5.487,222.9,2.813,0.218,24.49,110.293,25.65,26.52,20.19,0,111.2,13.03,26.49,184.9
"2016-06-25 00:16:30",1752442,5.767,218.1,3.419,0.49,24.5,110.303,25.67,26.54,19.98,0,111.2,13.03,26.51,180.1
"2016-06-25 00:17:00",1752443,6.13,212,3.331,0.539,24.34,110.2993,25.66,26.57,20.05,0,111.2,13.03,26.51,174.0
"2016-06-25 00:17:30",1752444,6.424,207.1,0.775,0.139,24.09,110.3156,25.71,26.62,20.42,0,111.2,13.03,26.55,169.1
"2016-06-25 00:18:00",1752445,6.32,205.9,0.986,0.129,23.97,110.3222,25.72,26.65,20.53,0,111.2,13.03,26.56,167.9
"2016-06-25 00:18:30",1752446,6.895,212.9,6.605,0.36,24.15,110.3472,25.79,26.67,20.67,0,111.2,13.03,26.63,174.9
"2016-06-25 00:19:00",1752447,7.782,217.8,3.547,0.442,24.65,110.3575,25.81,26.72,19.97,0,111.2,13.03,26.66,179.8
"2016-06-25 00:19:30",1752448,6.018,219,4.155,0.897,24.52,110.3806,25.87,26.73,19.91,0,111.2,13.03,26.71,181.0
"2016-06-25 00:20:00",1752449,5.908,212.6,3.692,0.724,24.58,110.3873,25.89,26.78,19.81,0,111.3,13.03,26.73,174.6
"2016-06-25 00:20:30",1752450,6.202,211.3,2.365,0.224,24.09,110.4129,25.96,26.82,20.24,0,111.3,13.03,26.80,173.3
"2016-06-25 00:21:00",1752451,6.334,208.4,2.897,0.302,24.16,110.4168,25.97,26.85,20.42,0,111.3,13.03,26.81,170.4
"2016-06-25 00:21:30",1752452,6.43,207.9,2.116,0.221,24.29,110.4345,26.01,26.89,20.37,0,111.3,13.03,26.85,169.9
"2016-06-25 00:22:00",1752453,5.997,211.5,6.242,0.79,23.96,110.4483,26.05,26.91,20.48,0,111.3,13.03,26.89,173.5
"2016-06-25 00:22:30",1752454,6.089,215.2,4.692,0.472,24.04,110.4533,26.06,26.92,20.57,0,111.3,13.03,26.90,177.2
"2016-06-25 00:23:00",1752455,5.956,215.1,3.815,0.442,24.08,110.4786,26.12,26.96,20.57,0,111.3,13.03,26.97,177.1
"2016-06-25 00:23:30",1752456,5.915,208.2,3.825,0.586,24.02,110.4776,26.12,26.98,20.7,0,111.3,13.03,26.96,170.2
"2016-06-25 00:24:00",1752457,5.707,223.4,3.373,0.395,23.9,110.4819,26.13,27.01,20.79,0,111.3,13.03,26.98,185.4
"2016-06-25 00:24:30",1752458,5.166,225.8,3.63,0.283,24.05,110.5056,26.19,27.05,20.9,0,111.3,13.03,27.04,187.8
"2016-06-25 00:25:00",1752459,4.389,233.3,7.622,0.568,23.98,110.5061,26.2,27.08,21.04,0,111.3,13.03,27.04,195.3
"2016-06-25 00:25:30",1752460,4.625,227.7,3.852,0.485,23.84,110.5042,26.19,27.09,21.23,0,111.3,13.02,27.03,189.7
"2016-06-25 00:26:00",1752461,3.955,230.7,5.093,0.498,23.8,110.497,26.17,27.11,21.32,0,111.3,13.02,27.01,192.7
"2016-06-25 00:26:30",1752462,4.695,213.3,13.43,0.549,23.84,110.5107,26.21,27.13,21.44,0,111.3,13.02,27.05,175.3
"2016-06-25 00:27:00",1752463,5.584,194.2,4.995,0.514,24.01,110.5121,26.21,27.13,21.43,0,111.3,13.02,27.05,156.2
"2016-06-25 00:27:30",1752464,5.107,192.1,3.059,0.561,24.16,110.5121,26.21,27.17,20.88,0,111.3,13.02,27.05,154.1
"2016-06-25 00:28:00",1752465,3.305,192.3,3.881,0.232,24.02,110.5158,26.22,27.17,20.64,0,111.3,13.02,27.06,154.3
"2016-06-25 00:28:30",1752466,2.954,186.5,6.46,0.458,23.88,110.5284,26.25,27.18,20.74,0,111.3,13.02,27.10,148.5
"2016-06-25 00:29:00",1752467,2.49,206,10.54,0.684,23.76,110.5234,26.24,27.2,21.25,0,111.3,13.02,27.08,168.0
"2016-06-25 00:29:30",1752468,2.653,199.7,9.3,0.633,23.84,110.5366,26.27,27.2,21.08,0,111.3,13.01,27.12,161.7
"2016-06-25 00:30:00",1752469,2.84,190.3,6.368,0.334,23.81,110.5368,26.27,27.2,21.46,0,111.3,13.01,27.12,152.3
"2016-06-25 00:30:30",1752470,3.369,194.4,5.507,0.527,23.91,110.5121,26.21,27.21,21.49,0,111.3,13.01,27.05,156.4
"2016-06-25 00:31:00",1752471,3.935,199.9,10.04,0.372,24,110.5118,26.21,27.19,21.79,0,111.3,13.02,27.05,161.9
"2016-06-25 00:31:30",1752472,4.124,191,4.636,0.37,24.06,110.4827,26.13,27.14,20.84,0,111.3,13.02,26.98,153.0
"2016-06-25 00:32:00",1752473,4.399,203.8,7.893,0.605,24.06,110.4775,26.12,27.11,20.55,0,111.3,13.02,26.96,165.8
"2016-06-25 00:32:30",1752474,3.352,205.9,16.99,0.501,24.09,110.4806,26.13,27.1,20.76,0,111.3,13.02,26.97,167.9
"2016-06-25 00:33:00",1752475,4.827,191.2,5.609,0.649,24.22,110.4981,26.17,27.11,20.66,0,111.4,13.02,27.02,153.2
"2016-06-25 00:33:30",1752476,4.34,197.3,5.875,0.308,24.15,110.5028,26.19,27.11,20.56,0,111.3,13.02,27.03,159.3
"2016-06-25 00:34:00",1752477,4.207,192.1,3.257,0.393,24.16,110.5037,26.19,27.13,20.71,0,111.4,13.02,27.03,154.1
"2016-06-25 00:34:30",1752478,4.297,190.6,3.775,0.168,24.16,110.5205,26.23,27.14,20.8,0,111.4,13.02,27.08,152.6
"2016-06-25 00:35:00",1752479,4.649,189.1,5.33,0.44,24.22,110.534,26.27,27.18,21.01,0,111.4,13.02,27.11,151.1
"2016-06-25 00:35:30",1752480,3.848,183.8,9.25,0.454,24.21,110.5333,26.26,27.2,21.14,0,111.4,13.02,27.11,145.8
"2016-06-25 00:36:00",1752481,3.333,180.4,7.071,0.495,24.18,110.5386,26.28,27.21,21.12,0,111.4,13.02,27.12,142.4
"2016-06-25 00:36:30",1752482,1.859,181,9.18,0.725,24.12,110.5334,26.27,27.21,21.07,0,111.4,13.02,27.11,143.0
"2016-06-25 00:37:00",1752483,2.933,199.5,8.63,0.19,24.11,110.5324,26.26,27.23,20.95,0,111.4,13.02,27.11,161.5
"2016-06-25 00:37:30",1752484,2.833,213.8,10.09,0.267,24.05,110.5416,26.29,27.24,20.87,0,111.4,13.02,27.13,175.8
"2016-06-25 00:38:00",1752485,2.429,204.7,6.484,0.378,24.06,110.5448,26.29,27.25,21.2,0,111.4,13.02,27.14,166.7
"2016-06-25 00:38:30",1752486,2.321,203.9,10.24,0.281,24.11,110.5458,26.3,27.28,21.29,0,111.4,13.02,27.14,165.9
"2016-06-25 00:39:00",1752487,2.46,207,9.41,0.323,24.04,110.5586,26.33,27.29,21.21,0,111.4,13.02,27.17,169.0
"2016-06-25 00:39:30",1752488,1.979,214.5,5.828,0.287,23.98,110.5763,26.38,27.32,21.16,0,111.4,13.02,27.22,176.5
"2016-06-25 00:40:00",1752489,2.09,230.1,7.687,0.172,24.01,110.5763,26.38,27.33,21.07,0,111.4,13.02,27.22,192.1
"2016-06-25 00:40:30",1752490,1.901,231.2,5.759,0.201,24.11,110.5807,26.39,27.35,20.97,0,111.4,13.01,27.23,193.2
"2016-06-25 00:41:00",1752491,2.214,214.9,9.81,0.167,24.01,110.6037,26.45,27.37,20.88,0,111.4,13.01,27.29,176.9
"2016-06-25 00:41:30",1752492,2.75,226.7,6.939,0.363,24.1,110.6096,26.46,27.4,20.82,0,111.4,13.01,27.31,188.7
"2016-06-25 00:42:00",1752493,2.457,235.5,4.302,0.278,24.08,110.6102,26.46,27.43,20.82,0,111.4,13.01,27.31,197.5
"2016-06-25 00:42:30",1752494,2.538,226.4,4.335,0.306,24.16,110.6225,26.49,27.45,20.84,0,111.4,13.01,27.34,188.4
"2016-06-25 00:43:00",1752495,2.208,227.1,5.094,0.178,24.13,110.6422,26.55,27.45,20.81,0,111.4,13.01,27.39,189.1
"2016-06-25 00:43:30",1752496,2.587,231,3.858,0.172,24.15,110.6433,26.55,27.48,20.55,0,111.4,13,27.39,193.0
"2016-06-25 00:44:00",1752497,2.891,236.7,4.384,0.672,24.37,110.6509,26.57,27.52,20.18,0,111.4,13,27.41,198.7
"2016-06-25 00:44:30",1752498,4.318,229.3,3.011,0.24,24.43,110.6669,26.61,27.53,19.93,0,111.4,13,27.45,191.3
"2016-06-25 00:45:00",1752499,4.17,234.2,1.527,0.09,24.6,110.6727,26.62,27.56,19.57,0,111.4,13,27.47,196.2
"2016-06-25 00:45:30",1752500,4.133,230,2.053,0.129,24.58,110.6721,26.62,27.56,19.37,0,111.4,13,27.47,192.0
"2016-06-25 00:46:00",1752501,4.117,237,2.408,0.167,24.68,110.6847,26.65,27.58,19.37,0,111.4,13,27.50,199.0
"2016-06-25 00:46:30",1752502,3.819,236.8,4.668,0.437,24.93,110.7013,26.7,27.6,19.55,0,111.4,13,27.54,198.8
"2016-06-25 00:47:00",1752503,3.283,240,3.9,0.24,24.94,110.702,26.7,27.63,19.63,0,111.4,13,27.54,202.0
"2016-06-25 00:47:30",1752504,3.55,243.3,3.038,0.192,24.93,110.7013,26.7,27.64,19.84,0,111.4,13,27.54,205.3
"2016-06-25 00:48:00",1752505,2.438,255.7,20.02,0.33,24.75,110.6971,26.69,27.64,20.28,0,111.4,13,27.53,217.7
"2016-06-25 00:48:30",1752506,2.371,275.6,9.16,0.276,24.62,110.6554,26.58,27.61,20.99,0,111.4,13,27.42,237.6
"2016-06-25 00:49:00",1752507,2.342,272.3,4.415,0.151,24.57,110.6217,26.49,27.55,21.17,0,111.4,13,27.34,234.3
"2016-06-25 00:49:30",1752508,2.42,279.5,6.688,0.351,24.58,110.5942,26.42,27.49,20.91,0,111.4,13,27.27,241.5
"2016-06-25 00:50:00",1752509,2.675,280.7,10.67,0.368,24.57,110.562,26.34,27.43,21.04,0,111.4,13,27.18,242.7
"2016-06-25 00:50:30",1752510,4.046,322.2,23.98,1.215,23.93,110.5018,26.18,27.36,23.4,0,111.4,13,27.03,284.2
"2016-06-25 00:51:00",1752511,3.662,358.8,8.49,1.206,23.95,110.4226,25.98,27.2,24.34,0,111.4,13,26.82,320.8
"2016-06-25 00:51:30",1752512,6.043,351.5,3.397,0.728,23.7,110.389,25.89,27.11,24.66,0,111.4,13,26.74,313.5
"2016-06-25 00:52:00",1752513,6.149,343.7,3.234,0.326,23.73,110.4075,25.94,27.06,24.67,0,111.4,13,26.78,305.7
"2016-06-25 00:52:30",1752514,6.527,335,2.667,0.332,23.72,110.4136,25.96,27.05,24.67,0,111.4,13,26.80,297.0
"2016-06-25 00:53:00",1752515,6.712,329.2,6.246,0.302,23.88,110.4155,25.96,27.04,24.91,0,111.4,13,26.80,291.2
"2016-06-25 00:53:30",1752516,6.255,332.6,3.213,0.216,23.9,110.4167,25.97,27.05,25.03,0,111.4,13,26.81,294.6
"2016-06-25 00:54:00",1752517,5.686,322.7,1.853,0.283,23.97,110.4218,25.98,27.06,25.35,0,111.4,13,26.82,284.7
"2016-06-25 00:54:30",1752518,5.511,325.2,2.17,0.142,24.15,110.4262,25.99,27.05,25.94,0,111.4,13,26.83,287.2
"2016-06-25 00:55:00",1752519,5.327,322.9,2.18,0.263,24.4,110.4251,25.99,27.05,25.24,0,111.4,13,26.83,284.9
"2016-06-25 00:55:30",1752520,4.828,318.5,4.148,0.222,24.86,110.4273,25.99,27.03,24.37,0,111.4,13,26.84,280.5
"2016-06-25 00:56:00",1752521,3.92,300.2,4.566,0.216,24.92,110.4273,25.99,27.03,23.87,0,111.4,13,26.84,262.2
"2016-06-25 00:56:30",1752522,2.987,313,10.24,0.343,25.08,110.4255,25.99,27.01,23.36,0,111.4,13,26.83,275.0
"2016-06-25 00:57:00",1752523,4.042,316.3,2.966,0.524,24.67,110.4081,25.94,27,23.39,0,111.4,13,26.79,278.3
"2016-06-25 00:57:30",1752524,4.103,320.6,4.248,0.224,24.64,110.3993,25.92,26.98,23.82,0,111.4,13.01,26.76,282.6
"2016-06-25 00:58:00",1752525,4.095,330.4,3.006,0.267,24.72,110.3992,25.92,26.97,23.87,0,111.4,13,26.76,292.4
"2016-06-25 00:58:30",1752526,4.726,340.4,5.028,0.151,24.23,110.3995,25.92,26.97,24.64,0,111.4,13,26.76,302.4
"2016-06-25 00:59:00",1752527,4.854,334.3,3.987,0.161,24.3,110.3886,25.89,26.94,25.21,0,111.4,13.01,26.74,296.3
"2016-06-25 00:59:30",1752528,5.207,338.9,1.105,0.334,24.35,110.3715,25.85,26.91,25.2,0,111.4,13.01,26.69,300.9
"2016-06-25 01:00:00",1752529,5.51,336.9,2.283,0.22,24.28,110.3692,25.84,26.9,25.9,0,111.4,13,26.69,298.9
"2016-06-25 01:00:30",1752530,5.809,338.8,3.553,0.298,24.26,110.3686,25.84,26.9,26.12,0,111.4,13.01,26.68,300.8
"2016-06-25 01:01:00",1752531,5.949,348.4,3.511,0.177,24.17,110.3576,25.81,26.87,26.19,0,111.4,13.01,26.66,310.4
"2016-06-25 01:01:30",1752532,5.514,349.1,3.108,0.385,24.12,110.3396,25.77,26.87,26.08,0,111.4,13.01,26.61,311.1
"2016-06-25 01:02:00",1752533,5.015,342.2,5.867,0.438,24.02,110.3386,25.76,26.84,26.32,0,111.4,13.01,26.61,304.2
"2016-06-25 01:02:30",1752534,5.022,340,2.265,0.105,23.91,110.3258,25.73,26.8,26.06,0,111.4,13.01,26.57,302.0
"2016-06-25 01:03:00",1752535,4.921,335.1,1.514,0.333,24.01,110.3071,25.68,26.78,25.8,0,111.4,13.01,26.53,297.1
"2016-06-25 01:03:30",1752536,4.903,338.6,2.475,0.141,23.87,110.2958,25.65,26.75,25.92,0,111.4,13.01,26.50,300.6
"2016-06-25 01:04:00",1752537,4.82,342.8,2.169,0.164,23.98,110.2739,25.6,26.72,25.92,0,111.4,13.01,26.44,304.8
"2016-06-25 01:04:30",1752538,4.945,343.6,1.727,0.409,23.93,110.2728,25.6,26.69,25.74,0,111.4,13.01,26.44,305.6
"2016-06-25 01:05:00",1752539,4.538,345.2,2.033,0.345,24.04,110.2563,25.55,26.65,25.77,0,111.4,13.01,26.39,307.2
"2016-06-25 01:05:30",1752540,4.119,345.2,3.064,0.169,24.27,110.2394,25.51,26.63,25.33,0,111.4,13.01,26.35,307.2
"2016-06-25 01:06:00",1752541,4.438,345.8,2.119,0.495,24.21,110.2391,25.51,26.6,25.02,0,111.4,13.01,26.35,307.8
"2016-06-25 01:06:30",1752542,4.891,343.8,4.92,0.575,24.18,110.2265,25.48,26.58,24.88,0,111.4,13.01,26.32,305.8
"2016-06-25 01:07:00",1752543,4.862,343.4,2.011,0.222,24.05,110.2097,25.43,26.55,25.1,0,111.4,13.01,26.27,305.4
"2016-06-25 01:07:30",1752544,4.62,343.1,4.05,0.246,24.06,110.2055,25.42,26.52,25.12,0,111.4,13.01,26.26,305.1
"2016-06-25 01:08:00",1752545,4.953,339.7,1.79,0.094,23.96,110.2055,25.42,26.49,25.12,0,111.4,13.01,26.26,301.7
"2016-06-25 01:08:30",1752546,4.83,342.5,1.519,0.16,24.11,110.1945,25.39,26.47,25,0,111.4,13.01,26.23,304.5
"2016-06-25 01:09:00",1752547,4.68,344.2,1.785,0.218,24.24,110.1791,25.35,26.44,24.81,0,111.4,13.01,26.20,306.2
"2016-06-25 01:09:30",1752548,4.847,344.9,2.829,0.144,24.29,110.174,25.34,26.43,24.63,0,111.4,13.01,26.18,306.9
"2016-06-25 01:10:00",1752549,5.004,346.5,2.19,0.157,24.21,110.1718,25.34,26.4,24.7,0,111.4,13.01,26.18,308.5
"2016-06-25 01:10:30",1752550,4.322,347.7,3.733,0.298,24.37,110.1718,25.34,26.4,24.61,0,111.4,13.01,26.18,309.7
"2016-06-25 01:11:00",1752551,4.292,345,2.245,0.231,24.41,110.1718,25.34,26.4,24.35,0,111.4,13.01,26.18,307.0
"2016-06-25 01:11:30",1752552,4.15,348.5,2.437,0.295,24.42,110.1718,25.34,26.37,24.24,0,111.4,13.01,26.18,310.5
"2016-06-25 01:12:00",1752553,4.305,349.2,2.405,0.216,24.42,110.1718,25.34,26.38,24.18,0,111.4,13.01,26.18,311.2
"2016-06-25 01:12:30",1752554,3.699,352.4,2.233,0.436,24.45,110.1718,25.34,26.37,24.2,0,111.4,13.01,26.18,314.4
"2016-06-25 01:13:00",1752555,3.577,350.1,3.236,0.326,24.46,110.1718,25.34,26.37,24.09,0,111.4,13.01,26.18,312.1
"2016-06-25 01:13:30",1752556,2.64,353,2.97,0.355,24.68,110.1718,25.34,26.36,23.89,0,111.4,13.01,26.18,315.0
"2016-06-25 01:14:00",1752557,3.127,352.2,3.276,0.78,24.73,110.1718,25.34,26.34,23.78,0,111.4,13.01,26.18,314.2
"2016-06-25 01:14:30",1752558,3.786,347.7,1.224,0.147,24.59,110.1718,25.34,26.36,23.85,0,111.4,13.01,26.18,309.7
"2016-06-25 01:15:00",1752559,3.642,345,2.597,0.134,24.59,110.1718,25.34,26.35,23.73,0,111.4,13.01,26.18,307.0
"2016-06-25 01:15:30",1752560,3.213,341.4,3.572,0.22,24.73,110.1729,25.34,26.35,23.43,0,111.4,13.01,26.18,303.4
"2016-06-25 01:16:00",1752561,3.27,344.3,1.276,0.1,24.68,110.1779,25.35,26.35,23.39,0,111.4,13.01,26.19,306.3
"2016-06-25 01:16:30",1752562,3.002,340.6,4.214,0.227,24.59,110.1824,25.36,26.37,23.38,0,111.4,13.01,26.20,302.6
"2016-06-25 01:17:00",1752563,3.037,341.8,2.287,0.084,24.55,110.1979,25.4,26.38,23.22,0,111.4,13.01,26.24,303.8
"2016-06-25 01:17:30",1752564,3.209,340.9,2.099,0.124,24.53,110.2055,25.42,26.38,23.23,0,111.4,13.01,26.26,302.9
"2016-06-25 01:18:00",1752565,3.099,344.2,2.657,0.103,24.46,110.2055,25.42,26.41,23.15,0,111.4,13,26.26,306.2
"2016-06-25 01:18:30",1752566,3.287,344.6,1.459,0.085,24.53,110.2055,25.42,26.4,23.13,0,111.4,13,26.26,306.6
"2016-06-25 01:19:00",1752567,3.253,345.8,1.437,0.056,24.45,110.2119,25.44,26.42,23.11,0,111.4,13,26.28,307.8
"2016-06-25 01:19:30",1752568,3.423,345.9,1.296,0.145,24.47,110.2251,25.47,26.43,23.08,0,111.4,12.99,26.31,307.9
"2016-06-25 01:20:00",1752569,3.8,342.8,1.525,0.121,24.41,110.2389,25.51,26.45,22.96,0,111.4,13,26.35,304.8
"2016-06-25 01:20:30",1752570,3.683,341.3,1.521,0.129,24.47,110.2391,25.51,26.47,22.84,0,111.4,13,26.35,303.3
"2016-06-25 01:21:00",1752571,3.61,339.6,1.009,0.073,24.67,110.2417,25.52,26.5,22.77,0,111.4,12.99,26.36,301.6
"2016-06-25 01:21:30",1752572,3.532,337.4,1.498,0.07,24.87,110.2543,25.55,26.52,22.7,0,111.4,12.99,26.39,299.4
"2016-06-25 01:22:00",1752573,3.538,335.8,0.909,0.047,24.97,110.2711,25.59,26.53,22.62,0,111.4,12.99,26.43,297.8
"2016-06-25 01:22:30",1752574,3.7,337.1,2.106,0.121,24.82,110.2728,25.6,26.53,22.5,0,111.4,12.99,26.44,299.1
"2016-06-25 01:23:00",1752575,3.901,333.5,2.232,0.081,24.87,110.2728,25.6,26.57,22.44,0,111.4,12.99,26.44,295.5
"2016-06-25 01:23:30",1752576,3.841,332.5,0.85,0.166,24.93,110.2759,25.6,26.58,22.22,0,111.4,13,26.44,294.5
"2016-06-25 01:24:00",1752577,4.081,331.3,0.701,0.068,25.05,110.2849,25.63,26.59,21.82,0,111.4,13,26.47,293.3
"2016-06-25 01:24:30",1752578,4.005,331,1.221,0.091,25.12,110.2967,25.66,26.62,21.34,0,111.4,13.01,26.50,293.0
"2016-06-25 01:25:00",1752579,4.124,329.6,1.047,0.104,25.09,110.3059,25.68,26.63,21.17,0,111.4,13.01,26.52,291.6
"2016-06-25 01:25:30",1752580,4.313,327.4,0.734,0.099,25.14,110.3065,25.68,26.65,21,0,111.4,13.01,26.52,289.4
"2016-06-25 01:26:00",1752581,4.222,326.4,1.22,0.16,25.09,110.3065,25.68,26.65,20.82,0,111.4,13.01,26.52,288.4
"2016-06-25 01:26:30",1752582,4.122,322.9,1.627,0.149,25.04,110.3065,25.68,26.65,20.74,0,111.4,13.01,26.52,284.9
"2016-06-25 01:27:00",1752583,3.859,321.7,1.347,0.137,25.09,110.3065,25.68,26.67,20.7,0,111.4,13.01,26.52,283.7
"2016-06-25 01:27:30",1752584,3.878,319.4,1.908,0.161,25.11,110.3085,25.69,26.67,20.75,0,111.4,13.01,26.53,281.4
"2016-06-25 01:28:00",1752585,3.941,318,1.664,0.105,25.19,110.313,25.7,26.7,20.72,0,111.4,13.01,26.54,280.0
"2016-06-25 01:28:30",1752586,3.549,318.3,2.302,0.142,25.03,110.3197,25.72,26.7,20.65,0,111.4,13.01,26.56,280.3
"2016-06-25 01:29:00",1752587,3.651,318,2.933,0.15,24.95,110.3264,25.73,26.72,20.78,0,111.3,13.01,26.57,280.0
"2016-06-25 01:29:30",1752588,3.69,315,1.965,0.172,24.96,110.3306,25.74,26.72,20.8,0,111.4,13.01,26.59,277.0
"2016-06-25 01:30:00",1752589,3.839,314.4,0.591,0.073,25.04,110.336,25.76,26.72,20.81,0,111.4,13.01,26.60,276.4
"2016-06-25 01:30:30",1752590,4.027,316.7,0.921,0.046,25.16,110.3385,25.76,26.72,20.81,0,111.4,13.01,26.61,278.7
"2016-06-25 01:31:00",1752591,3.892,315.7,0.926,0.092,25.26,110.3399,25.77,26.74,20.77,0,111.3,13.01,26.61,277.7
"2016-06-25 01:31:30",1752592,3.951,318.2,1.056,0.071,25.21,110.3405,25.77,26.75,20.74,0,111.3,13.01,26.61,280.2
"2016-06-25 01:32:00",1752593,3.913,317.6,1.528,0.08,25.13,110.3402,25.77,26.77,20.82,0,111.4,13.01,26.61,279.6
"2016-06-25 01:32:30",1752594,3.683,317.2,1.523,0.079,25.21,110.3405,25.77,26.77,20.8,0,111.3,13.01,26.61,279.2
"2016-06-25 01:33:00",1752595,3.548,316.7,1.492,0.043,25.08,110.3411,25.77,26.76,20.74,0,111.3,13.01,26.61,278.7
"2016-06-25 01:33:30",1752596,3.542,316.9,1.982,0.059,25.12,110.3408,25.77,26.78,20.76,0,111.3,13.01,26.61,278.9
"2016-06-25 01:34:00",1752597,3.229,318.7,2.638,0.138,25.22,110.343,25.78,26.78,20.8,0,111.3,13.01,26.62,280.7
"2016-06-25 01:34:30",1752598,3.204,317.9,2.194,0.075,25.17,110.343,25.78,26.79,20.78,0,111.3,13.01,26.62,279.9
"2016-06-25 01:35:00",1752599,3.355,321.7,1.631,0.086,25.21,110.3464,25.78,26.81,20.78,0,111.3,13.01,26.63,283.7
"2016-06-25 01:35:30",1752600,3.232,322.9,1.896,0.094,25.16,110.3436,25.78,26.8,20.78,0,111.3,13.01,26.62,284.9
"2016-06-25 01:36:00",1752601,3.392,324.6,1.18,0.174,25.15,110.3451,25.78,26.79,20.81,0,111.3,13,26.62,286.6
"2016-06-25 01:36:30",1752602,3.714,326.6,1.692,0.098,25.22,110.3507,25.8,26.8,20.81,0,111.3,13.01,26.64,288.6
"2016-06-25 01:37:00",1752603,3.715,326.7,0.897,0.12,25.23,110.3515,25.8,26.81,20.81,0,111.3,13,26.64,288.7
"2016-06-25 01:37:30",1752604,3.632,328.1,1.273,0.082,25.22,110.3553,25.81,26.8,20.84,0,111.3,13,26.65,290.1
"2016-06-25 01:38:00",1752605,3.342,328.6,1.973,0.154,25.16,110.3557,25.81,26.81,20.86,0,111.3,13.01,26.65,290.6
"2016-06-25 01:38:30",1752606,3.213,332.5,1.772,0.116,25.16,110.3519,25.8,26.79,20.83,0,111.3,13.01,26.64,294.5
"2016-06-25 01:39:00",1752607,3.24,332.7,1.013,0.109,25.08,110.3485,25.79,26.79,20.88,0,111.3,13.01,26.63,294.7
"2016-06-25 01:39:30",1752608,3.242,333.7,0.818,0.059,25.09,110.3405,25.77,26.79,20.91,0,111.3,13,26.61,295.7
"2016-06-25 01:40:00",1752609,3.272,334.2,1.427,0.063,25.08,110.3357,25.76,26.79,20.93,0,111.3,13.01,26.60,296.2
"2016-06-25 01:40:30",1752610,3.344,333.3,0.818,0.035,25.16,110.335,25.76,26.77,20.92,0,111.3,13.01,26.60,295.3
"2016-06-25 01:41:00",1752611,3.303,330.9,0.705,0.056,25.04,110.335,25.76,26.77,20.91,0,111.3,13.01,26.60,292.9
"2016-06-25 01:41:30",1752612,3.317,328.2,2.285,0.189,25.16,110.3365,25.76,26.77,20.91,0,111.3,13.01,26.60,290.2
"2016-06-25 01:42:00",1752613,3.73,325,1.203,0.086,25.22,110.3381,25.76,26.77,20.92,0,111.3,13.01,26.61,287.0
"2016-06-25 01:42:30",1752614,3.507,321.8,1.947,0.231,25.23,110.3379,25.76,26.76,20.94,0,111.3,13.02,26.60,283.8
"2016-06-25 01:43:00",1752615,3.001,327.1,1.802,0.113,25.25,110.325,25.73,26.75,20.92,0,111.3,13.02,26.57,289.1
"2016-06-25 01:43:30",1752616,3.007,325.2,2.442,0.094,25.2,110.3131,25.7,26.74,20.96,0,111.3,13.02,26.54,287.2
"2016-06-25 01:44:00",1752617,2.792,327.6,2.841,0.143,25.11,110.3103,25.69,26.73,21.01,0,111.3,13.02,26.53,289.6
"2016-06-25 01:44:30",1752618,2.977,325.7,2.215,0.097,25.21,110.31,25.69,26.72,21.01,0,111.3,13.02,26.53,287.7
"2016-06-25 01:45:00",1752619,2.771,325.7,1.639,0.101,25.04,110.3097,25.69,26.7,21.02,0,111.3,13.02,26.53,287.7
"2016-06-25 01:45:30",1752620,2.756,326.8,1.191,0.133,25.13,110.2996,25.66,26.69,21.03,0,111.3,13.01,26.51,288.8
"2016-06-25 01:46:00",1752621,2.946,326.2,2.064,0.088,25.15,110.2833,25.62,26.68,21.03,0,111.3,13.02,26.46,288.2
"2016-06-25 01:46:30",1752622,2.917,325.4,1.657,0.062,25.11,110.2766,25.61,26.66,21.07,0,111.3,13.02,26.45,287.4
"2016-06-25 01:47:00",1752623,2.868,326,1.701,0.135,25.06,110.2763,25.6,26.65,21.1,0,111.3,13.02,26.45,288.0